Tracking 17142 objects as of 27-May-2015
HD Live streaming from Space Station

CZ-4B DEB

Track CZ-4B DEB now!
10-day predictions
CZ-4B DEB is classified as:


NORAD ID: 36290
Int'l Code: 2008-053L
Perigee: 568.1 km
Apogee: 597.8 km
Inclination: 97.5 °
Period: 96.2 minutes
Semi major axis: 6953 km
RCS: 0.0218 m2 (small)
Launch date: October 25, 2008
Source: People's Republic of China (PRC)

Note: This is SATELLITE DEBRIS
Your satellite tracking list
Your tracking list is empty





NASA's NSSDC Master Catalog

Two Line Element Set (TLE):
1 36290U 08053L   15145.26042643  .00000488  00000-0  46964-4 0  9992
2 36290 097.5445 146.4231 0021360 187.7153 172.3744 14.97125855337267

Source of the keplerian elements: AFSPC

N2YO: 365